This is the latest recevied weather packets stored in our database for station/object EA1HTW-13. If no packets are shown the sender has not sent any weather packets the latest 10 day(s).
| Time | Temp. | Humidity | Pressure | Rain* | Wind** | Luminosity | Snow |
|---|---|---|---|---|---|---|---|
| 1777955535 | 12.22° C | 85% | 1009.3 hPa | 2.79 mm | - | - | - |
| 1777954994 | 12.22° C | 85% | 1009.3 hPa | 3.56 mm | - | - | - |
| 1777954454 | 12.22° C | 85% | 1009.3 hPa | 3.56 mm | - | - | - |
| 1777953914 | 12.22° C | 85% | 1009.5 hPa | 3.05 mm | - | - | - |
| 1777953375 | 12.22° C | 84% | 1009.7 hPa | 3.3 mm | - | - | - |
| 1777952835 | 12.78° C | 81% | 1009.6 hPa | 3.3 mm | - | - | - |
| 1777952295 | 12.78° C | 81% | 1009.6 hPa | 3.3 mm | - | - | - |
| 1777951755 | 12.78° C | 81% | 1009.7 hPa | 1.78 mm | - | - | - |
| 1777951214 | 12.78° C | 81% | 1009.4 hPa | 2.79 mm | - | - | - |
| 1777950674 | 12.78° C | 81% | 1009.5 hPa | 2.79 mm | - | - | - |
| 1777950134 | 12.78° C | 81% | 1009.7 hPa | 2.79 mm | - | - | - |
| 1777949595 | 12.78° C | 81% | 1009.8 hPa | 2.29 mm | - | - | - |
| 1777949054 | 12.78° C | 81% | 1009.8 hPa | 3.3 mm | - | - | - |
| 1777948515 | 12.78° C | 80% | 1009.8 hPa | 3.05 mm | - | - | - |
| 1777947975 | 12.78° C | 80% | 1009.9 hPa | 2.29 mm | - | - | - |
| 1777947434 | 12.78° C | 80% | 1009.9 hPa | 1.78 mm | - | - | - |
| 1777946895 | 12.78° C | 80% | 1009.9 hPa | 1.78 mm | - | - | - |
| 1777946354 | 12.78° C | 80% | 1010 hPa | 1.52 mm | - | - | - |
| 1777945815 | 12.78° C | 79% | 1010.2 hPa | 1.27 mm | - | - | - |
| 1777945274 | 12.78° C | 79% | 1010 hPa | 0.51 mm | - | - | - |
| 1777944735 | 12.78° C | 78% | 1010.2 hPa | 0 mm | - | - | - |
| 1777944195 | 12.78° C | 79% | 1010.2 hPa | 0 mm | - | - | - |
| 1777943656 | 12.78° C | 79% | 1010.1 hPa | 0 mm | - | - | - |
| 1777943114 | 12.78° C | 78% | 1010.3 hPa | 0.25 mm | - | - | - |
| 1777942574 | 12.78° C | 78% | 1010.3 hPa | 0.25 mm | - | - | - |
* Rain latest hour (hover to see other rain measurements)
** Current wind speed in m/s (hover to see current wind gust speed)